Погода в Жилине

Россия / Орловская область     53°12′28″N   36°45′17″E
темп.,
°C
ветер,
м/с
пор.,
м/с
влажн.,
%
обл.,
%
осадки,
мм/ч
давл.,
гПа
погр.,
м
28 ноября, вс
вс2800:00+3ю61297100 0.0 1003438
03:00+5ююз61397100 0.0 1003477
06:00+5юз598593 0.0 1003414
09:00+2юз39955 0.0 1006220
12:00+4зюз47795 0.0 1007373
15:00+4юз257952 0.0 1008190
18:00+2ю3386100 0.0 100930
21:00+2юв3495100 0.0 100973
29 ноября, пн
пн2900:00+4ююв51094100 0.0 1008419
03:00+4юв51193100 0.0 1007265
06:00+4вюв41096100 0.0 1004233
09:00+5всв4998100 0.6 1001200
12:00+5вюв51198100 0.9 998404
15:00+6ю41199100 1.4 996362
18:00+7ююв4997100 0.1 994326
21:00+7вюв41197100 0.3 989370
30 ноября, вт
вт3000:00+7вюв61298100 3.9 983436
03:00+8ю101585100 6.9 976878
06:00+6зюз101596100 1.3 9751048
09:00+1зюз142396100 8.5 980991
12:000зюз142397100 4.9 9841145
15:00+1зюз111985100 5.6 9871033
18:00+1юз101682100 0.0 9891171
21:000юз9158577 0.2 9891123
1 декабря, ср
ср100:00−1зюз91480100 0.0 989988
03:00−2зюз8138995 0.1 990883
06:00−3зюз81393100 0.1 990878
09:00−3з71295100 0.8 992914
12:00−3з81194100 1.3 994854
15:00−3з71193100 1.9 996834
18:00−4з71289100 0.3 998726
21:00−5зсз5987100 0.4 1000819
2 декабря, чт
чт200:00−5з598757 0.1 1002624
03:00−7зюз489344 0.1 1004296
06:00−7юз389499 0.0 1005236
09:00−5ю51190100 0.0 1004372
12:00−2ю81695100 0.4 1002690
15:000ююз71596100 1.1 1001710
18:00+1юз71598100 0.4 1002568
21:00+1юз61492100 0.4 1003462